Regional Weather Roundup
Issued by NWS

Home | Current Version | Previous Version | Graphics & Text | Print | Product List | Glossary On
Versions: 1 2 3 4 5 6 7 8 9 10 11 12 13 14 15 16 17 18 19 20 21 22 23 24 25 26 27 28 29 30 31 32 33 34 35 36 37 38 39 40 41 42 43 44 45 46 47 48 49 50
000
ASUS43 KLOT 100908
RWRIL

ILLINOIS REGIONAL WEATHER ROUNDUP
NATIONAL WEATHER SERVICE CHICAGO/ROMEOVILLE IL
300 AM CST SAT DEC 10 2016

NOTE: "FAIR" INDICATES FEW OR NO CLOUDS BELOW 12,000 FEET WITH NO
SIGNIFICANT WEATHER AND/OR OBSTRUCTIONS TO VISIBILITY.

* THESE STATIONS ARE NOT UNDER NWS QUALITY CONTROL. THEY ALSO MAY NOT
  REPORT WEATHER SUCH AS PRECIPITATION OR FOG.

ILZ001-002-007-009-015-016-024-101000-
NORTHWEST ILLINOIS

CITY           SKY/WX    TMP DP  RH WIND       PRES   REMARKS
MOLINE         CLOUDY    21  14  74 SW3       30.55R
STERLING*      CLOUDY    19  14  81 W8        30.54S WCI   9
SAVANNA*       CLOUDY    19  14  81 W7        30.53F WCI  10
$$

ILZ003-004-008-010-011-017-018-101000-
NORTH CENTRAL ILLINOIS

CITY           SKY/WX    TMP DP  RH WIND       PRES   REMARKS
ROCKFORD       CLOUDY    18  13  80 W6        30.52S WCI  10
FREEPORT*      CLOUDY    17  13  83 W6        30.52S WCI   9
ROCHELLE*      CLOUDY    18  14  82 W7        30.51F WCI   9
DE KALB*       CLOUDY    18  13  82 W7        30.50S WCI   8
$$

ILZ005-006-012>014-019>023-101000-
NORTHEAST ILLINOIS

CITY           SKY/WX    TMP DP  RH WIND       PRES   REMARKS
CHICAGO-OHARE  CLOUDY    19  11  70 W8        30.50S WCI   9
CHICAGO-MIDWAY FLURRIES  21  11  65 W7        30.51S WCI  12
AURORA         CLOUDY    20  14  77 W8        30.52S WCI  10
LANSING*       CLOUDY    20  15  81 W6        30.52S WCI  13
JOLIET*        CLOUDY    22  16  78 CALM      30.53S
WAUKEGAN       CLOUDY    19  13  77 W7        30.47S WCI  10
DUPAGE AIRPORT CLOUDY    19  12  74 W9        30.50S WCI   8
KANKAKEE*      CLOUDY    23  15  73 W5        30.54S WCI  16
WHEELING       PTCLDY    19  12  74 W7        30.51F WCI  10
MORRIS*        CLOUDY    21  15  76 W8        30.52F WCI  12
ROMEOVILLE*    CLOUDY    20  17  88 NW5       30.52S WCI  13
NORTHERLY ISL    N/A     21  12  68 W8          N/A  WCI  12
$$

LMZ740>746-101000-
SOUTHERN LAKE MICHIGAN

STATION/POSITION SKY/WX   TEMP    WIND        PRES    VSBY  WAVE
                          AIR SEA DIR/SP/G                  HT/PER
                          (F)     (DEG/KT/KT) (MB)    (MI)  (FT/S)
BURNHAM HARBOR             21     270/  8/ 12   N/A
CALUMET HARBOR             20     250/  6/  9 1032.5S
BURNS HARBOR               24     290/ 16/ 20 1033.2R
$$

ILZ025>027-034>036-040-047-049-050-058-095>099-101000-
WEST-CENTRAL ILLINOIS

CITY           SKY/WX    TMP DP  RH WIND       PRES   REMARKS
QUINCY         CLOUDY    23  16  74 CALM      30.56R
GALESBURG*     CLOUDY    21  16  81 CALM      30.55R
MACOMB*        CLOUDY    22  17  79 CALM      30.58S
JACKSONVILLE*  CLOUDY    22  16  77 CALM      30.58R
PITTSFIELD*    CLOUDY    24  17  74 CALM      30.57S
$$

ILZ028>032-037-038-041>044-048-051>054-059>061-101000-
CENTRAL ILLINOIS

CITY           SKY/WX    TMP DP  RH WIND       PRES   REMARKS
PONTIAC        CLOUDY    23  16  74 W8        30.55S WCI  13
BLOOMINGTON    CLOUDY    21  15  78 W6        30.54S WCI  13
DECATUR        CLOUDY    22  14  71 W3        30.56R
PEORIA         CLOUDY    22  14  71 W7        30.57R WCI  13
LACON*         CLOUDY    21  14  73 W6        30.54F WCI  13
LINCOLN*       CLOUDY    23  16  75 CALM      30.57R
SPRINGFIELD    CLOUDY    24  17  74 W6        30.58R WCI  17
TAYLORVILLE    CLOUDY    22  17  83 CALM      30.57S
$$

ILZ033-039-045-046-055>057-062-063-101000-
EAST-CENTRAL ILLINOIS

CITY           SKY/WX    TMP DP  RH WIND       PRES   REMARKS
CHAMPAIGN      CLOUDY    22  15  75 W6        30.55R WCI  14
RANTOUL*       CLOUDY    24  18  79 W6        30.54S WCI  17
MATTOON        CLOUDY    23  15  71 W3        30.55S
PARIS*         CLOUDY    22  18  83 W3        30.56S
$$

ILZ079-100>102-101000-
SOUTHWEST ILLINOIS

CITY           SKY/WX    TMP DP  RH WIND       PRES   REMARKS
ALTON          CLOUDY    24  18  78 S3        30.58S
BELLEVILLE     CLOUDY    23  20  86 S3        30.57S
CAHOKIA*       CLOUDY    25  18  74 S3        30.59R
SPARTA*        CLOUDY    24  17  74 CALM      30.59S
$$

ILZ064>066-069>071-074>076-080>082-084>086-088>090-092>094-101000-
SOUTH-CENTRAL ILLINOIS

CITY           SKY/WX    TMP DP  RH WIND       PRES   REMARKS
CARBONDALE     CLOUDY    22  19  89 CALM      30.60S
CAIRO*         CLEAR     17  15  94 CALM      30.60S
EFFINGHAM*     CLOUDY    23  19  84 SW5       30.59S WCI  17
MARION         CLOUDY    25  21  86 CALM      30.60S
CENTRALIA*     CLOUDY    24  20  84 CALM      30.58S
SALEM*         CLOUDY    24  18  77 CALM      30.57F
METROPOLIS*    CLEAR     17  15  92 CALM      30.60F
$$

ILZ067-068-072-073-078-083-087-091-101000-
SOUTHEAST ILLINOIS

CITY           SKY/WX    TMP DP  RH WIND       PRES   REMARKS
LAWRENCEVILLE  CLOUDY    23  18  81 CALM      30.59R
FLORA*         CLOUDY    24  21  87 CALM      30.59S
FAIRFIELD*     CLOUDY    22  19  88 CALM      30.58F
HARRISBURG*    CLOUDY    22  20  93 CALM      30.61S
ROBINSON*      CLOUDY    21  18  86 SW3       30.59S
CARMI*         CLOUDY    22  19  88 SW3       30.60R
$$

ABBREVIATIONS USED IN REMARKS
   TC - TEMPERATURE IN CELSIUS
  WCI - WIND CHILL INDEX
   HX - HEAT INDEX
  VSB - VISIBILITY
$$





USA.gov is the U.S. government's official web portal to all federal, state and local government web resources and services.